Вернуться в каталог

ONEWEB-0632

АктивенСвязьPO
NORAD 56073·PAYLOAD·🇬🇧 United Kingdom

Запущен Mar 26, 2023 с Satish Dhawan Space Centre

Loading…

Ближайшие Пролёты (ближайшие 24 часа)

TLE

СвежийSource: CelesTrak SupGP

Эпоха: Sep 14, 2026, 14:54 UTC

1 56073C 23043AD  26257.62102270 -.00002720  00000+0 -72330-2 0  2571
2 56073  87.8984 241.3794 0002183  87.7292 310.7445 13.15552121    17

Отслеживайте ONEWEB-0632 в реальном времени с AllMySat

Download on the App Store